#timestamp,LO_Frequency,Hit,Temp,Hum 
1487509215.3,286047006.7,N,0.0,0.0
1487509235.1,286047001.9,N,0.0,0.0
1487509255.8,286047005.2,N,0.0,0.0
1487509275.7,286047004.0,N,0.0,0.0
1487509295.5,286047005.7,N,0.0,0.0
1487509315.3,286047007.2,N,0.0,0.0
1487509335.2,286047004.9,N,0.0,0.0
1487509355.9,286047006.3,N,0.0,0.0
1487509375.7,286047006.8,N,0.0,0.0
1487509395.6,286047010.5,Y,0.0,0.0
1487509415.4,286047005.6,N,0.0,0.0
1487509435.2,286047005.5,N,0.0,0.0
1487509455.1,286047009.2,N,0.0,0.0
1487509456.0,286047009.2,N,0.0,0.0
1487509475.8,286047007.9,N,0.0,0.0
1487509495.6,286047007.6,N,0.0,0.0
1487509515.5,286047006.1,N,0.0,0.0
1487509535.3,286047010.2,Y,0.0,0.0
1487509555.1,286047004.8,N,0.0,0.0
1487509575.9,286047004.0,N,0.0,0.0
1487509595.7,286047001.1,N,0.0,0.0
1487509615.5,286046995.1,N,0.0,0.0
1487509635.4,286046994.1,N,0.0,0.0
1487509655.2,286046992.5,N,0.0,0.0
1487509675.0,286046990.9,N,0.0,0.0
1487509675.9,286046990.9,N,0.0,0.0
1487509695.8,286046988.6,N,0.0,0.0
1487509715.6,286046990.0,N,0.0,0.0
1487509735.4,286046988.2,N,0.0,0.0
1487509755.3,286046985.6,N,0.0,0.0
1487509775.1,286046986.1,N,0.0,0.0
1487509776.0,286046986.1,N,0.0,0.0
1487509795.8,286046985.9,N,0.0,0.0
1487509815.7,286046985.3,N,0.0,0.0
1487509835.5,286046985.6,N,0.0,0.0
1487509855.3,286046984.2,N,0.0,0.0
1487509875.2,286046984.1,N,0.0,0.0
1487509895.9,286046984.0,N,0.0,0.0
1487509915.7,286046984.0,N,0.0,0.0
1487509935.6,286046984.6,N,0.0,0.0
1487509955.4,286046982.5,N,0.0,0.0
1487509975.2,286046984.5,N,0.0,0.0
1487509995.0,286046984.1,N,0.0,0.0
1487509996.0,286046984.1,N,0.0,0.0
1487510015.8,286046982.8,N,0.0,0.0
1487510035.6,286046981.7,N,0.0,0.0
1487510055.4,286046979.0,N,0.0,0.0
1487510075.3,286046980.6,N,0.0,0.0
1487510095.1,286046980.0,N,0.0,0.0
1487510115.8,286046979.1,N,0.0,0.0
1487510135.7,286046981.9,N,0.0,0.0
1487510155.5,286046976.1,N,0.0,0.0
1487510175.3,286046978.7,N,0.0,0.0
1487510195.2,286046977.9,N,0.0,0.0
1487510215.9,286046974.9,N,0.0,0.0
1487510235.7,286046976.8,N,0.0,0.0
1487510255.6,286046970.9,N,0.0,0.0
1487510275.4,286046978.2,N,0.0,0.0
1487510295.2,286046990.2,N,0.0,0.0
1487510315.1,286046991.6,N,0.0,0.0
1487510316.0,286046991.6,N,0.0,0.0
1487510335.8,286046997.9,N,0.0,0.0
1487510355.6,286046995.3,N,0.0,0.0
1487510375.5,286046997.1,N,0.0,0.0
1487510395.3,286046992.2,N,0.0,0.0
1487510415.1,286046985.4,N,0.0,0.0
1487510435.9,286046980.9,N,0.0,0.0
1487510455.7,286046979.3,N,0.0,0.0
1487510475.5,286046978.0,N,0.0,0.0
1487510495.3,286046974.2,N,0.0,0.0
1487510515.2,286046975.2,N,0.0,0.0
1487510535.0,286046970.6,N,0.0,0.0
1487510535.9,286046970.6,N,0.0,0.0
1487510555.7,286046970.5,N,0.0,0.0
1487510575.6,286046971.9,N,0.0,0.0
1487510595.4,286046968.6,N,0.0,0.0
1487510615.2,286046967.1,N,0.0,0.0
1487510635.1,286046964.5,N,0.0,0.0
1487510636.0,286046964.5,N,0.0,0.0
1487510655.8,286046963.6,N,0.0,0.0
1487510675.6,286046963.6,N,0.0,0.0
1487510695.5,286046964.1,N,0.0,0.0
1487510715.3,286046960.9,N,0.0,0.0
1487510735.1,286046956.6,Y,0.0,0.0
1487510755.9,286046967.9,N,0.0,0.0
1487510775.7,286046968.2,N,0.0,0.0
1487510795.5,286046970.7,N,0.0,0.0
1487510815.4,286046970.2,N,0.0,0.0
1487510835.2,286046964.8,N,0.0,0.0
1487510855.0,286046965.6,N,0.0,0.0
1487510855.9,286046965.6,N,0.0,0.0
1487510875.8,286046965.0,N,0.0,0.0
1487510895.6,286046962.9,N,0.0,0.0
1487510915.4,286046965.8,N,0.0,0.0
1487510935.3,286046963.1,N,0.0,0.0
1487510955.1,286046961.8,N,0.0,0.0
1487510956.0,286046961.8,N,0.0,0.0
1487510975.8,286046959.8,Y,0.0,0.0
1487510995.7,286046977.6,N,0.0,0.0
1487511015.5,286046978.5,N,0.0,0.0
1487511035.3,286046976.1,N,0.0,0.0
1487511055.2,286046976.4,N,0.0,0.0
1487511075.9,286046975.4,N,0.0,0.0
1487511095.7,286046971.4,N,0.0,0.0
1487511115.6,286046974.0,N,0.0,0.0
1487511135.4,286046972.1,N,0.0,0.0
1487511155.2,286046971.0,N,0.0,0.0
1487511175.1,286046972.3,N,0.0,0.0
1487511176.0,286046972.3,N,0.0,0.0
1487511195.8,286046971.6,N,0.0,0.0
1487511215.6,286046971.4,N,0.0,0.0
1487511235.5,286046972.7,N,0.0,0.0
1487511255.3,286046972.9,N,0.0,0.0
1487511275.1,286046975.1,N,0.0,0.0
1487511295.9,286046971.3,Y,0.0,0.0
1487511315.7,286046995.3,N,0.0,0.0
1487511335.5,286046996.3,N,0.0,0.0
1487511355.4,286046993.4,N,0.0,0.0
1487511375.2,286046996.2,N,0.0,0.0
1487511395.0,286046993.6,N,0.0,0.0
1487511395.9,286046993.6,N,0.0,0.0
1487511415.8,286046992.1,N,0.0,0.0
1487511435.6,286046990.8,N,0.0,0.0
1487511455.4,286046988.9,N,0.0,0.0
1487511475.3,286046990.0,N,0.0,0.0
1487511495.1,286046986.5,N,0.0,0.0
1487511496.0,286046986.5,N,0.0,0.0
1487511515.8,286046985.9,N,0.0,0.0
1487511535.6,286046986.8,N,0.0,0.0
1487511555.5,286046984.8,N,0.0,0.0
1487511575.3,286046982.1,N,0.0,0.0
1487511595.1,286046983.0,N,0.0,0.0
1487511615.9,286046981.1,N,0.0,0.0
1487511635.7,286046980.6,N,0.0,0.0
1487511655.5,286046985.2,N,0.0,0.0
1487511675.4,286046982.4,N,0.0,0.0
1487511695.2,286046982.2,N,0.0,0.0
1487511715.0,286046982.0,N,0.0,0.0
1487511715.9,286046982.0,N,0.0,0.0
1487511735.8,286046979.9,N,0.0,0.0
1487511755.6,286046979.3,N,0.0,0.0
1487511775.4,286046979.0,N,0.0,0.0
1487511795.3,286046980.1,N,0.0,0.0
1487511815.1,286046979.8,N,0.0,0.0
1487511816.0,286046979.8,N,0.0,0.0
1487511835.8,286046979.8,N,0.0,0.0
1487511855.7,286046981.5,N,0.0,0.0
1487511875.5,286046980.0,N,0.0,0.0
1487511895.3,286046975.9,N,0.0,0.0
1487511915.2,286046977.2,N,0.0,0.0
1487511935.9,286046976.9,N,0.0,0.0
1487511955.7,286046976.2,N,0.0,0.0
1487511975.6,286046974.5,N,0.0,0.0
1487511995.4,286046977.2,N,0.0,0.0
1487512015.2,286046976.6,N,0.0,0.0
1487512035.0,286046978.3,N,0.0,0.0
1487512036.0,286046978.3,N,0.0,0.0
1487512055.8,286046980.2,N,0.0,0.0
1487512075.6,286046980.0,N,0.0,0.0
1487512095.4,286046975.8,N,0.0,0.0
1487512115.3,286046976.9,N,0.0,0.0
1487512135.1,286046978.4,N,0.0,0.0
1487512155.8,286046976.9,N,0.0,0.0
1487512175.7,286046974.8,N,0.0,0.0
1487512195.5,286046975.7,N,0.0,0.0
1487512215.3,286046975.6,N,0.0,0.0
1487512235.2,286046975.0,N,0.0,0.0
1487512255.9,286046974.7,N,0.0,0.0
1487512275.7,286046976.7,N,0.0,0.0
1487512295.6,286046981.5,N,0.0,0.0
1487512315.4,286046982.6,N,0.0,0.0
1487512335.2,286046981.0,N,0.0,0.0
1487512355.1,286046979.2,N,0.0,0.0
1487512356.0,286046979.2,N,0.0,0.0
1487512375.8,286046981.8,N,0.0,0.0
1487512395.6,286046983.3,N,0.0,0.0
1487512415.5,286046981.7,N,0.0,0.0
1487512435.3,286046977.4,N,0.0,0.0
1487512455.1,286046979.9,N,0.0,0.0
1487512475.9,286046979.6,N,0.0,0.0
1487512495.7,286046981.3,N,0.0,0.0
1487512515.5,286046979.8,N,0.0,0.0
1487512535.4,286046981.7,N,0.0,0.0
1487512555.2,286046984.4,N,0.0,0.0
1487512575.0,286046985.3,N,0.0,0.0
1487512575.9,286046985.3,N,0.0,0.0
1487512595.8,286046985.7,N,0.0,0.0
1487512615.6,286046988.3,N,0.0,0.0
1487512635.4,286046988.4,N,0.0,0.0
1487512655.2,286046988.1,N,0.0,0.0
1487512675.1,286046987.0,N,0.0,0.0
1487512676.0,286046987.0,N,0.0,0.0
1487512695.8,286046985.3,N,0.0,0.0
1487512715.6,286046985.9,N,0.0,0.0
1487512735.5,286046986.0,N,0.0,0.0
1487512755.3,286046986.8,N,0.0,0.0
1487512775.1,286046986.2,N,0.0,0.0
1487512795.9,286046986.3,N,0.0,0.0
